KUIPER-00446

导读 | 豆包AI

KUIPER-00446(NORAD编号68944)是亚马逊柯伊伯(Kuiper)低轨互联网卫星星座的成员之一,隶属于柯伊伯系统卫星群计划。作为亚马逊打造的近地轨道宽带通信卫星,它运行在低地球轨道,依托V及Ku波段提供高速低延迟的宽带互联网服务,旨在实现全球范围的网络覆盖,填补偏远地区网络连接空白,也可为地面通信网络提供回传支持,目前该卫星处于在轨运行状态,是柯伊伯星座规模化部署进程中的组成单元,服务于全球卫星互联网组网建设。

基本信息
目录编号:
68944
目录名称:
KUIPER-00446
国际标识:
2026-098AB
轨道中心:
EARTH
卫星名称:
KUIPER-00446
卫星全名:
KUIPER-00446
卫星状态:
在轨 (已飞行25 天)
发射日期:
2026-04-30 UTC
国别 :
美国 (US)
星等 :
--
轨道信息
数据来源 国际轨道数据 AOE轨道数据
星历时间 2026-05-24T11:24:00+0800
1天前
查看轨道信息
2026-05-22T08:00:00+0800
3天前
查看轨道信息
半长轴 6841.461km 6840.957km
偏心率 0.0006499 0.0006515
轨道倾角 51.872° 51.874°
近地点辐角 68.737° 53.527°
升交点赤经 183.599° 193.909°
平近点角 291.431° 349.741°
近地点 458.877km 458.363km
远地点 467.771km 467.277km
周期 93.861分钟 93.850分钟
每日圈数 15.341914 15.343609
详细信息
使用方式:
暂无
2D轨道图
3D轨道图
轨道高度分析图
轨道倾角分析图
轨道综合分析图
查看轨道综合分析图